| time (UTC) | temp C | wind direction | speed KPH | gust KPH | rain 1hr cm | rain 24hr cm | rain mn cm | humidity % | barometer mb |
| 20260503044606 | 2 | 0 | 1.6 | 6.4 | 0.00 | 0.00 | 0.00 | 78 | 1013.1 |
| 20260503043107 | 2 | 234 | 1.6 | 9.7 | 0.00 | 0.00 | 0.00 | 78 | 1013.2 |
| 20260503041615 | 2 | 263 | 0.0 | 8.0 | 0.00 | 0.00 | 0.00 | 78 | 1013.3 |
| 20260503040106 | 3 | 286 | 1.6 | 11.3 | 0.00 | 0.00 | 0.00 | 77 | 1013.3 |
| 20260503034557 | 3 | 221 | 3.2 | 11.3 | 0.00 | 0.00 | 0.00 | 77 | 1013.3 |
| 20260503033108 | 3 | 238 | 1.6 | 11.3 | 0.00 | 0.00 | 0.00 | 77 | 1013.3 |
| 20260503031604 | 3 | 241 | 3.2 | 9.7 | 0.00 | 0.00 | 0.00 | 77 | 1013.4 |
| 20260503030056 | 3 | 0 | 3.2 | 11.3 | 0.00 | 0.00 | 0.00 | 77 | 1013.4 |
| 20260503024600 | 3 | 197 | 1.6 | 11.3 | 0.00 | 0.00 | 0.00 | 76 | 1013.6 |
| 20260503023103 | 3 | 252 | 1.6 | 14.5 | 0.00 | 0.00 | 0.00 | 77 | 1013.6 |
| 20260503021606 | 3 | 212 | 3.2 | 11.3 | 0.00 | 0.00 | 0.00 | 76 | 1013.7 |
| 20260503020108 | 3 | 236 | 3.2 | 9.7 | 0.00 | 0.00 | 0.00 | 76 | 1013.8 |
| 20260503014600 | 3 | 239 | 1.6 | 9.7 | 0.00 | 0.00 | 0.00 | 76 | 1013.8 |
| 20260503013107 | 3 | 202 | 1.6 | 9.7 | 0.00 | 0.00 | 0.00 | 76 | 1013.8 |
| 20260503011608 | 3 | 227 | 3.2 | 8.0 | 0.00 | 0.00 | 0.00 | 76 | 1013.7 |
| 20260503010106 | 3 | 0 | 1.6 | 11.3 | 0.00 | 0.00 | 0.00 | 76 | 1013.6 |
| 20260503004558 | 3 | 202 | 3.2 | 11.3 | 0.00 | 0.03 | 0.00 | 75 | 1013.5 |
| 20260503003108 | 3 | 259 | 1.6 | 11.3 | 0.00 | 0.03 | 0.00 | 75 | 1013.5 |
| 20260503001601 | 3 | 254 | 3.2 | 12.9 | 0.00 | 0.03 | 0.00 | 74 | 1013.4 |
| 20260503000111 | 3 | 232 | 1.6 | 9.7 | 0.00 | 0.03 | 0.00 | 75 | 1013.4 |
| 20260502234557 | 3 | 274 | 1.6 | 12.9 | 0.00 | 0.03 | 0.00 | 74 | 1013.3 |
| 20260502233102 | 4 | 286 | 1.6 | 12.9 | 0.00 | 0.03 | 0.00 | 74 | 1013.1 |
| 20260502231612 | 4 | 272 | 0.0 | 12.9 | 0.00 | 0.03 | 0.00 | 73 | 1013.2 |
| 20260502230113 | 4 | 234 | 4.8 | 12.9 | 0.00 | 0.03 | 0.00 | 72 | 1013.1 |
| 20260502224601 | 5 | 226 | 4.8 | 14.5 | 0.00 | 0.10 | 0.00 | 71 | 1012.9 |
| 20260502223058 | 5 | 231 | 4.8 | 11.3 | 0.00 | 0.10 | 0.00 | 70 | 1012.8 |
| 20260502221601 | 5 | 279 | 1.6 | 12.9 | 0.00 | 0.10 | 0.00 | 71 | 1012.9 |
| 20260502220056 | 5 | 315 | 3.2 | 12.9 | 0.00 | 0.10 | 0.00 | 71 | 1012.9 |
| 20260502214559 | 5 | 258 | 6.4 | 16.1 | 0.00 | 0.15 | 0.00 | 70 | 1012.7 |
| 20260502213057 | 5 | 275 | 6.4 | 17.7 | 0.00 | 0.15 | 0.00 | 69 | 1012.7 |
| 20260502211559 | 5 | 330 | 3.2 | 17.7 | 0.00 | 0.15 | 0.00 | 69 | 1012.6 |
| 20260502210057 | 6 | 344 | 6.4 | 16.1 | 0.00 | 0.15 | 0.00 | 67 | 1012.4 |
| 20260502204610 | 5 | 207 | 4.8 | 16.1 | 0.00 | 0.18 | 0.00 | 67 | 1012.5 |
| 20260502203059 | 5 | 233 | 6.4 | 16.1 | 0.00 | 0.18 | 0.00 | 65 | 1012.6 |
| 20260502201559 | 6 | 215 | 6.4 | 20.9 | 0.00 | 0.18 | 0.00 | 61 | 1012.5 |
| 20260502200059 | 6 | 316 | 4.8 | 16.1 | 0.00 | 0.18 | 0.00 | 57 | 1012.5 |
| 20260502194556 | 6 | 300 | 8.0 | 20.9 | 0.00 | 0.20 | 0.00 | 57 | 1012.6 |
| 20260502193100 | 7 | 236 | 4.8 | 19.3 | 0.00 | 0.20 | 0.00 | 57 | 1012.6 |
| 20260502191604 | 7 | 280 | 4.8 | 16.1 | 0.00 | 0.20 | 0.00 | 56 | 1012.7 |
| 20260502190058 | 7 | 322 | 6.4 | 20.9 | 0.00 | 0.20 | 0.00 | 54 | 1012.7 |
| 20260502184556 | 7 | 194 | 3.2 | 19.3 | 0.00 | 0.23 | 0.00 | 55 | 1012.8 |
| 20260502183058 | 7 | 342 | 8.0 | 17.7 | 0.00 | 0.23 | 0.00 | 53 | 1012.7 |
| 20260502181601 | 7 | 267 | 6.4 | 19.3 | 0.00 | 0.23 | 0.00 | 55 | 1012.5 |
| 20260502163111 | 6 | 254 | 6.4 | 20.9 | 0.00 | 0.23 | 0.00 | 57 | 1012.7 |
| 20260502161559 | 6 | 279 | 9.7 | 27.4 | 0.00 | 0.23 | 0.00 | 57 | 1012.7 |
| 20260502151558 | 6 | 269 | 4.8 | 24.1 | 0.00 | 0.23 | 0.00 | 62 | 1012.9 |
| 20260502150111 | 6 | 261 | 6.4 | 24.1 | 0.00 | 0.23 | 0.00 | 62 | 1013.0 |
| 20260502130109 | 2 | 287 | 3.2 | 16.1 | 0.00 | 0.23 | 0.00 | 81 | 1013.8 |
| 20260502123104 | 2 | 219 | 3.2 | 12.9 | 0.00 | 0.23 | 0.00 | 82 | 1013.8 |
| 20260502121602 | 2 | 287 | 4.8 | 12.9 | 0.00 | 0.23 | 0.00 | 81 | 1013.8 |
| 20260502114559 | 1 | 290 | 4.8 | 14.5 | 0.00 | 0.23 | 0.00 | 81 | 1013.5 |
| 20260502113101 | 1 | 279 | 4.8 | 12.9 | 0.00 | 0.23 | 0.00 | 82 | 1013.5 |
| 20260502111602 | 0 | 240 | 3.2 | 11.3 | 0.00 | 0.23 | 0.00 | 82 | 1013.4 |
| 20260502110105 | 0 | 232 | 1.6 | 11.3 | 0.00 | 0.23 | 0.00 | 82 | 1013.3 |
| 20260502104602 | 0 | 248 | 3.2 | 12.9 | 0.00 | 0.25 | 0.00 | 82 | 1013.2 |
| 20260502103109 | 0 | 254 | 3.2 | 14.5 | 0.00 | 0.25 | 0.00 | 82 | 1013.1 |
| 20260502101556 | 0 | 281 | 3.2 | 12.9 | 0.00 | 0.25 | 0.00 | 82 | 1012.9 |
| 20260502080107 | 1 | 271 | 3.2 | 11.3 | 0.00 | 0.25 | 0.00 | 81 | 1012.0 |
| 20260502070057 | 2 | 286 | 3.2 | 14.5 | 0.00 | 0.25 | 0.00 | 82 | 1011.8 |
| 20260502064559 | 2 | 266 | 1.6 | 11.3 | 0.00 | 0.25 | 0.00 | 82 | 1011.9 |
| 20260502063117 | 2 | 0 | 0.0 | 3.2 | 0.00 | 0.25 | 0.00 | 82 | 1012.0 |
| 20260502061600 | 2 | 0 | 0.0 | 4.8 | 0.00 | 0.25 | 0.00 | 82 | 1012.0 |
| 20260502060059 | 2 | 0 | 0.0 | 6.4 | 0.00 | 0.25 | 0.00 | 82 | 1012.0 |
| 20260502054607 | 3 | 0 | 1.6 | 6.4 | 0.00 | 0.25 | 0.00 | 82 | 1011.9 |
| 20260502053104 | 3 | 268 | 0.0 | 4.8 | 0.00 | 0.25 | 0.00 | 82 | 1012.1 |
| 20260502051558 | 3 | 231 | 1.6 | 12.9 | 0.00 | 0.25 | 0.00 | 82 | 1012.2 |